www.pogodaiklimat.ru

Погода и климат >> Архив погоды >> Канада >> Peterborough Arpt


ПОГОДА в Peterborough Arpt

  • Прогноз погоды в Peterborough Arpt
  • Монитор погоды в Peterborough Arpt
  • Климат города

АРХИВ ПОГОДЫ в Peterborough Arpt

Время (UTC), дата Ветер
(напр.,м/с)
 
Видим.   Явления Облачность Т
(С)
Тd
(С)
f
(%)
Тe
(С)
Тes
(С)
Комфортность P
(гПа)
Po
(гПа)
Тmin
(С)
Tmax
(С)
R
(мм)
R24
(мм)
S
(см)
00 14.09 СВ 7 н/о н/о -0.5 -1.6 92 -8 -8 1008.3 1007.0 -1.6 +0.1
03 14.09 СВ 7 н/о н/о -0.6 -1.6 93 -8 -8 1009.3 1008.0
06 14.09 СВ 8 н/о н/о -0.6 -2.1 90 -8 -8 1010.4 1009.1 -1.6 +0.1 20
09 14.09 СВ 8 н/о н/о -0.7 -1.9 92 -8 -8 1011.3 1010.0
12 14.09 СВ 6 н/о н/о -1.1 -1.9 94 -8 -8 1012.2 1010.9 -1.3 +0.1
15 14.09 В 5 н/о н/о -0.6 -2.8 85 -7 -7 1012.9 1011.6
18 14.09 В 5 н/о н/о -0.8 -3.1 84 -7 -7 1013.7 1012.4 -1.6 -0.3
21 14.09 СВ 5 н/о н/о -0.8 -3.4 83 -7 -7 1014.4 1013.1
00 15.09 СВ 7 н/о н/о -1.0 -3.6 82 -8 -8 1014.7 1013.4 -1.6 -0.3
03 15.09 СВ 6 н/о н/о -1.5 -2.4 94 -9 -9 1015.0 1013.7
06 15.09 СВ 5 н/о н/о -1.7 -2.5 94 -8 -8 1015.4 1014.1 -2.1 -0.3 8
09 15.09 СВ 3 н/о н/о -2.1 -2.8 95 -7 -7 1015.8 1014.5 0.2
12 15.09 С 5 н/о {осадки} н/о -1.9 -3.0 92 -9 -9 1016.2 1014.9 -2.9 -0.3 0.4
15 15.09 С 4 н/о н/о -1.6 -3.7 86 -8 -8 1016.0 1014.7
18 15.09 С 1 н/о н/о -0.7 -4.4 76 -3 -3 1015.9 1014.6 -2.9 -0.7
21 15.09 З 4 н/о н/о -1.2 -5.3 74 -6 -6 1015.3 1014.0
00 16.09 З 6 н/о н/о -2.7 -4.8 85 -10 -10 1014.2 1012.9 -2.9 +0.1
03 16.09 З 9 н/о н/о -2.5 -4.3 87 -11 -11 1012.4 1011.1
06 16.09 ЮЗ 7 н/о н/о -3.0 -4.4 90 -11 -11 1012.0 1010.7 -3.0 +0.1 3
09 16.09 З 8 н/о н/о -3.4 -4.8 90 -12 -12 1010.8 1009.5
12 16.09 ЮЗ 6 н/о н/о -3.1 -4.4 91 -11 -11 1009.6 1008.3 -3.4 +0.1
15 16.09 ЮЗ 7 н/о н/о -2.3 -3.8 89 -10 -10 1008.0 1006.7
18 16.09 ЮЗ 8 н/о н/о -1.7 -3.4 88 -10 -10 1006.6 1005.3 -3.4 -1.4
21 16.09 ЮЗ 6 н/о н/о -1.9 -3.5 89 -9 -9 1005.5 1004.2
00 17.09 ЮЗ 6 н/о н/о -2.2 -3.6 90 -9 -9 1004.4 1003.1 -3.4 -1.4
03 17.09 ЮЗ 6 н/о н/о -2.1 -3.7 89 -9 -9 1002.5 1001.2
06 17.09 З 6 н/о {осадки} н/о -3.2 -5.2 86 -10 -10 1002.1 1000.8 -3.4 -1.4 0.2 16
09 17.09 З 7 н/о н/о -5.3 -7.0 88 -14 -14 1002.5 1001.2
12 17.09 ЮЗ 9 н/о н/о -4.9 -7.5 82 -14 -14 1002.9 1001.6 -5.7 -1.4
15 17.09 Ю 6 н/о н/о -4.3 -7.2 80 -12 -12 1003.5 1002.2
18 17.09 Ю 4 н/о н/о -3.8 -7.1 78 -10 -10 1004.0 1002.7 -5.7 -3.2
21 17.09 ЮВ 4 н/о н/о -3.9 -8.1 73 -10 -10 1004.4 1003.1
00 18.09 ЮВ 2 н/о н/о -4.4 -7.5 79 -9 -9 1004.0 1002.7 -5.7 -3.0
03 18.09 СЗ 3 н/о н/о -4.6 -5.7 92 -10 -10 1003.1 1001.8
06 18.09 З 6 н/о н/о -4.6 -6.6 86 -12 -12 1002.2 1000.9 12
09 18.09 З 6 н/о {осадки} н/о -5.5 -7.4 86 -13 -13 1002.7 1001.4 0.2
12 18.09 З 4 н/о {осадки} н/о -5.9 -8.2 84 -13 -13 1004.2 1002.9 0.2
15 18.09 ЮЗ 3 н/о н/о -6.1 -8.3 84 -12 -12 1005.0 1003.7
18 18.09 СЗ 4 н/о н/о -5.1 -5.9 94 -11 -11 1003.9 1002.6 -4.6 0.4
21 18.09 З 8 н/о н/о -4.8 -6.9 85 -14 -14 1002.8 1001.5 1
00 19.09 З 5 н/о н/о -5.4 -7.2 87 -12 -12 1005.6 1004.3 -6.5 -3.6 1
06 19.09 н/о н/о -2.0 -2.7 95 1005.8 1004.5 6
09 19.09 СВ 11 н/о {осадки} н/о -0.5 -0.8 98 -9 -9 1005.2 1003.9 0.7
12 19.09 СВ 9 н/о {осадки} н/о -0.3 -0.8 96 -9 -9 1006.0 1004.7 0.7
15 19.09 СВ 7 н/о н/о -0.3 -0.5 99 -8 -8 1006.5 1005.2 0.5
18 19.09 СВ 10 н/о {осадки} н/о +0.6 -0.8 90 -7 -7 1006.8 1005.5 +0.6 0.5
21 19.09 СВ 9 н/о н/о +0.4 -0.7 92 -8 -8 1007.2 1005.9
00 20.09 ЮВ 4 н/о н/о -1.5 -1.8 98 -7 -7 1008.8 1007.5 -2.0 +0.7 0.5
03 20.09 ЮВ 1 н/о {осадки} н/о -2.8 -3.5 95 -5 -5 1010.6 1009.3 0.2
06 20.09 В 4 н/о {осадки} н/о -2.2 -3.8 89 -8 -8 1012.0 1010.7 -2.9 +0.7 0.2 9
09 20.09 СВ 4 н/о н/о -2.2 -3.1 94 -8 -8 1012.9 1011.6
12 20.09 СВ 2 н/о н/о -2.2 -3.8 89 -6 -6 1014.2 1012.9 -2.9 +0.7
15 20.09 СВ 2 н/о н/о -1.8 -5.4 76 -6 -6 1015.3 1014.0
18 20.09 В 2 н/о н/о -1.0 -6.1 68 -5 -5 1016.0 1014.7 -2.9 -1.0

 

Местоположение метеостанции Peterborough Arpt (Канада): широта 44.23 долгота -78.36 высота над уровнем моря 191 м.

В архиве по умолчанию представлена погода в Peterborough Arpt за последнюю неделю. Архивные данные за месяц целиком и за предыдущие месяцы, начиная с января 2011 года, Вы можете получить, выбрав интересующий диапазон дат из раскрывающегося списка и нажав кнопку "Ввод!".


*Определитесь, кто Вы:
робот инопланетянин человек

Внимание! Время в таблицах - всемирное. Для получения местного времени необходимо прибавить поправку, которая в Peterborough Arpt равна -5 ч.

Смотрите также архив погоды в соседних городах и на ближайших метеорологических станциях:

Погода в Peterborough Trent (Канада) (14 км)
Погода в Cobourg (Канада) (35 км)
Погода в Oshawa (Канада) (54 км)
Погода в Trenton (Канада) (67 км)
Погода в Lagoon City (Канада) (75 км)
Погода в Toronto Buttonville (Канада) (89 км)
Погода в Buttonville (Канада) (89 км)
Погода в Barrie-oro (Канада) (98 км)
Погода в Toronto Aes Hq (Канада) (101 км)
Погода в Bancroft Auto (Канада) (101 км)

Пояснения к столбцам:

Ветер - указаны скорость ветра в м/с - средняя за 10 мин, порывы в срок и между сроками (в фигурных скобках) и направление, откуда дует ветер: С - северный, СВ - северо-восточный, В - восточный, ЮВ - юго-восточный, Ю - южный, ЮЗ - юго-западный, З - западный, СЗ - северо-западный.
Видимость - горизонтальная дальность видимости в метрах или километрах. При видимости от 1 до 10 км при отсутствии осадков обычно наблюдается дымка, при ухудшении видимости до 1 км и менее - туман. В сухую погоду видимость может ухудшаться дымом, пылью или мглою.
Явления - указаны атмосферные явления, наблюдавшиеся в срок или в последний час перед сроком; фигурными скобками обозначены явления, наблюдавшиеся между сроками (за 1-3 часа до срока); квадратными скобками обозначены град или гололедные отложения с указанием их диаметра в мм.
Облачность - указаны через наклонную черту общая и нижняя облачность в баллах и высота нижней границы облаков в метрах; квадратными скобками обозначены формы облаков: Ci - перистые, Cs - перисто-слоистые, Cc - перисто-кучевые, Ac - высококучевые, As - высокослоистые, Sc - слоисто-кучевые, Ns - слоисто-дождевые, Cu - кучевые, Cb - кучево-дождевые. Подробнее классификацию облаков см. в Атласе облаков (PDF).
T - Температура воздуха - температура, измеренная на высоте 2 м над землей.
Td - Температура точки росы - температура, при понижении до которой содержащийся в воздухе водяной пар достигнет насыщения.
f - Относительная влажность воздуха - влажноcть воздуха, измеренная на высоте 2 м над землей.
Te - Эффективная температура - температура, которую ощущает одетый по сезону человек в тени. Характеристика душности погоды. При расчете учитывается влияние влажности воздуха и скорости ветра на теплоощущения человека.
Tes - Эффективная температура на солнце - температура, которую ощущает человек, с поправкой на солнечный нагрев. Характеристика знойности погоды. Зависит от высоты солнца над горизонтом, облачности и скорости ветра. Ночью, в пасмурную погоду, а также при ветре 12 м/с и более поправка равна нулю.
P - Атмосферное давление - приведенное к уровню моря атмосферное давление.
Po - Атмосферное давление - измеренное на уровне метеостанции атмосферное давление.
Tmin - Минимальная температура - минимум температуры воздуха на высоте 2 м над землей.
Tmax - Максимальная температура - максимум температуры воздуха на высоте 2 м над землей.
R - Количество осадков - Количество выпавших осадков за период времени, мм. При наведении курсора мыши на число - период времени, за который выпало указанное количество осадков.
R24 - Количество осадков - Количество выпавших осадков за 24 часа, мм.
S - Снежный покров - Высота снежного покрова, см. При наведении курсора мыши на число - состояние снежного покрова и степень покрытия местности в баллах.